Time,TemperatureF,DewpointF,PressureIn,WindDirection,WindDirectionDegrees,WindSpeedMPH,WindSpeedGustMPH,Humidity,HourlyPrecipIn,Conditions,Clouds,dailyrainin,SoftwareType,DateUTC
2013-06-11 00:01:00,58.7,57.3,29.81,East,87,0.0,2.0,95,0.16,,-RA,1.11,VWS V14.00,2013-06-11 04:01:00,
2013-06-11 00:06:00,58.7,57.3,29.81,SSW,195,0.0,1.0,95,0.07,,-RA,0.00,VWS V14.00,2013-06-11 04:06:00,
2013-06-11 00:11:00,58.7,57.3,29.81,ENE,71,0.0,1.0,95,0.07,,-RA,0.00,VWS V14.00,2013-06-11 04:11:00,
2013-06-11 00:16:00,58.7,57.3,29.80,NE,43,0.0,1.0,95,0.03,,-RA,0.00,VWS V14.00,2013-06-11 04:16:00,
2013-06-11 00:21:00,58.7,57.3,29.80,West,259,0.0,2.0,95,0.03,,-RA,0.00,VWS V14.00,2013-06-11 04:21:00,
2013-06-11 00:26:00,58.7,57.3,29.80,West,259,0.0,1.0,95,0.03,,-RA,0.00,VWS V14.00,2013-06-11 04:26:00,
2013-06-11 00:32:00,58.7,57.3,29.79,ESE,121,0.0,1.0,95,0.02,,-RA,0.00,VWS V14.00,2013-06-11 04:32:00,
2013-06-11 00:37:00,58.7,57.3,29.79,NW,312,0.0,0.0,95,0.02,,-RA,0.00,VWS V14.00,2013-06-11 04:37:00,
2013-06-11 00:42:00,58.7,57.3,29.79,SE,136,0.0,3.0,95,0.02,,-RA,0.00,VWS V14.00,2013-06-11 04:42:00,
2013-06-11 00:47:00,58.7,57.3,29.76,East,86,2.0,3.0,95,0.01,,-RA,0.01,VWS V14.00,2013-06-11 04:47:00,
2013-06-11 00:52:00,58.7,57.3,29.76,NNE,30,0.0,5.0,95,0.01,,OVC008,0.01,VWS V14.00,2013-06-11 04:52:00,
2013-06-11 00:57:00,58.7,57.3,29.76,North,9,1.0,4.0,95,0.01,,OVC008,0.01,VWS V14.00,2013-06-11 04:57:00,
2013-06-11 01:02:00,58.7,57.3,29.76,NNW,327,0.0,3.0,95,0.01,,OVC008,0.01,VWS V14.00,2013-06-11 05:02:00,
2013-06-11 01:07:00,58.7,57.3,29.76,North,349,0.0,3.0,95,0.01,,OVC008,0.01,VWS V14.00,2013-06-11 05:07:00,
2013-06-11 01:12:00,58.7,57.3,29.76,SE,125,0.0,1.0,95,0.01,,OVC008,0.01,VWS V14.00,2013-06-11 05:12:00,
2013-06-11 01:17:00,58.7,57.3,29.75,SE,125,0.0,0.0,95,0.01,,OVC008,0.01,VWS V14.00,2013-06-11 05:17:00,
2013-06-11 01:22:00,58.7,57.3,29.75,West,261,1.0,3.0,95,0.01,,OVC008,0.01,VWS V14.00,2013-06-11 05:22:00,
2013-06-11 01:27:00,58.7,57.3,29.75,NE,45,0.0,0.0,95,0.02,,OVC008,0.02,VWS V14.00,2013-06-11 05:27:00,
2013-06-11 01:32:00,58.7,57.3,29.75,SSE,165,0.0,1.0,95,0.02,,OVC008,0.02,VWS V14.00,2013-06-11 05:32:00,
2013-06-11 01:37:00,58.7,57.3,29.75,SSE,167,0.0,2.0,95,0.02,,OVC008,0.02,VWS V14.00,2013-06-11 05:37:00,
2013-06-11 01:42:00,58.7,57.3,29.75,ESE,109,0.0,2.0,95,0.03,,OVC008,0.03,VWS V14.00,2013-06-11 05:42:00,
2013-06-11 01:47:00,58.7,57.3,29.73,ENE,67,0.0,0.0,95,0.02,, +RA,0.03,VWS V14.00,2013-06-11 05:47:00,
2013-06-11 01:52:00,58.7,57.3,29.73,ENE,67,0.0,0.0,95,0.03,, +RA,0.04,VWS V14.00,2013-06-11 05:52:00,
2013-06-11 01:57:00,58.9,57.5,29.73,SE,138,0.0,2.0,95,0.03,, +RA,0.04,VWS V14.00,2013-06-11 05:57:00,
2013-06-11 02:02:00,58.9,57.8,29.73,SE,138,0.0,0.0,96,0.04,, +RA,0.05,VWS V14.00,2013-06-11 06:02:00,
2013-06-11 02:07:00,58.9,57.5,29.73,SE,138,0.0,0.0,95,0.04,, +RA,0.05,VWS V14.00,2013-06-11 06:07:00,
2013-06-11 02:12:00,58.9,57.8,29.73,SE,138,0.0,0.0,96,0.04,, +RA,0.05,VWS V14.00,2013-06-11 06:12:00,
2013-06-11 02:17:00,59.0,57.9,29.73,NE,40,0.0,0.0,96,0.04,, +RA,0.05,VWS V14.00,2013-06-11 06:17:00,
2013-06-11 02:22:00,59.0,57.9,29.73,NE,40,0.0,0.0,96,0.04,, +RA,0.05,VWS V14.00,2013-06-11 06:22:00,
2013-06-11 02:27:00,59.0,57.9,29.73,NE,40,0.0,0.0,96,0.04,, +RA,0.05,VWS V14.00,2013-06-11 06:27:00,
2013-06-11 02:32:00,59.0,57.9,29.73,NE,40,0.0,0.0,96,0.03,, +RA,0.05,VWS V14.00,2013-06-11 06:32:00,
2013-06-11 02:37:00,58.9,57.8,29.73,NE,40,0.0,0.0,96,0.03,, +RA,0.05,VWS V14.00,2013-06-11 06:37:00,
2013-06-11 02:42:00,59.0,57.9,29.73,NE,40,0.0,0.0,96,0.04,, +RA,0.06,VWS V14.00,2013-06-11 06:42:00,
2013-06-11 02:47:00,58.9,57.8,29.72,NE,40,0.0,0.0,96,0.03,,-RA,0.06,VWS V14.00,2013-06-11 06:47:00,
2013-06-11 02:52:00,59.0,57.9,29.72,West,260,3.0,3.0,96,0.03,,-RA,0.06,VWS V14.00,2013-06-11 06:52:00,
2013-06-11 02:57:00,59.0,57.9,29.72,West,261,0.0,0.0,96,0.03,,-RA,0.06,VWS V14.00,2013-06-11 06:57:00,
2013-06-11 03:02:00,59.0,57.9,29.71,NNE,14,3.0,5.0,96,0.01,,-RA,0.06,VWS V14.00,2013-06-11 07:02:00,
2013-06-11 03:07:00,59.0,57.9,29.71,West,278,3.0,5.0,96,0.01,,-RA,0.06,VWS V14.00,2013-06-11 07:07:00,
2013-06-11 03:13:00,59.0,57.9,29.71,West,278,0.0,0.0,96,0.01,,-RA,0.06,VWS V14.00,2013-06-11 07:13:00,
2013-06-11 03:18:00,59.0,57.9,29.70,West,278,0.0,1.0,96,0.01,,-RA,0.06,VWS V14.00,2013-06-11 07:18:00,
2013-06-11 03:23:00,59.0,57.9,29.70,West,279,0.0,0.0,96,0.01,,-RA,0.06,VWS V14.00,2013-06-11 07:23:00,
2013-06-11 03:28:00,59.0,57.9,29.70,North,11,0.0,3.0,96,0.01,,-RA,0.06,VWS V14.00,2013-06-11 07:28:00,
2013-06-11 03:33:00,59.0,57.9,29.68,SE,138,0.0,0.0,96,0.01,,-RA,0.06,VWS V14.00,2013-06-11 07:33:00,
2013-06-11 03:38:00,59.0,57.9,29.68,SE,136,0.0,2.0,96,0.01,,-RA,0.06,VWS V14.00,2013-06-11 07:38:00,
2013-06-11 03:43:00,59.0,57.9,29.68,South,171,0.0,1.0,96,0.01,,-RA,0.06,VWS V14.00,2013-06-11 07:43:00,
2013-06-11 03:48:00,59.2,58.1,29.69,South,171,0.0,0.0,96,0.00,,OVC004,0.06,VWS V14.00,2013-06-11 07:48:00,
2013-06-11 03:53:00,59.2,58.1,29.69,ESE,117,0.0,2.0,96,0.00,,OVC004,0.06,VWS V14.00,2013-06-11 07:53:00,
2013-06-11 03:58:00,59.0,57.9,29.69,ESE,117,0.0,0.0,96,0.00,,OVC004,0.06,VWS V14.00,2013-06-11 07:58:00,
2013-06-11 04:03:00,59.0,57.9,29.68,ESE,117,0.0,0.0,96,0.00,,OVC004,0.06,VWS V14.00,2013-06-11 08:03:00,
2013-06-11 04:08:00,59.0,57.9,29.68,ESE,117,0.0,0.0,96,0.00,,OVC004,0.06,VWS V14.00,2013-06-11 08:08:00,
2013-06-11 04:13:00,59.2,58.1,29.68,ESE,117,0.0,0.0,96,0.00,,OVC004,0.06,VWS V14.00,2013-06-11 08:13:00,
2013-06-11 04:18:00,59.2,58.1,29.68,ESE,117,0.0,0.0,96,0.00,,OVC004,0.06,VWS V14.00,2013-06-11 08:18:00,
2013-06-11 04:23:00,59.2,58.1,29.68,ESE,117,0.0,1.0,96,0.01,,OVC004,0.07,VWS V14.00,2013-06-11 08:23:00,
2013-06-11 04:28:00,59.2,58.1,29.68,ESE,117,0.0,1.0,96,0.02,,OVC004,0.08,VWS V14.00,2013-06-11 08:28:00,
2013-06-11 04:33:00,59.2,58.1,29.66,ESE,105,0.0,2.0,96,0.02,,OVC004,0.08,VWS V14.00,2013-06-11 08:33:00,
2013-06-11 04:38:00,59.2,58.1,29.66,NNE,12,3.0,5.0,96,0.03,,OVC004,0.09,VWS V14.00,2013-06-11 08:38:00,
2013-06-11 04:43:00,59.2,58.1,29.66,NNE,26,5.0,6.0,96,0.03,,OVC004,0.09,VWS V14.00,2013-06-11 08:43:00,
2013-06-11 04:48:00,59.2,58.1,29.66,North,5,1.0,1.0,96,0.03,,-RA,0.09,VWS V14.00,2013-06-11 08:48:00,
2013-06-11 04:53:00,59.2,58.1,29.66,WNW,300,1.0,2.0,96,0.03,,-RA,0.09,VWS V14.00,2013-06-11 08:53:00,
2013-06-11 04:58:00,59.2,58.1,29.66,WNW,288,4.0,4.0,96,0.04,,-RA,0.10,VWS V14.00,2013-06-11 08:58:00,
2013-06-11 05:03:00,59.2,58.1,29.67,WNW,288,0.0,0.0,96,0.05,,-RA,0.11,VWS V14.00,2013-06-11 09:03:00,
2013-06-11 05:08:00,59.2,58.1,29.67,WNW,288,1.0,1.0,96,0.06,,-RA,0.12,VWS V14.00,2013-06-11 09:08:00,
2013-06-11 05:13:00,59.2,58.1,29.67,WNW,288,0.0,0.0,96,0.07,,-RA,0.13,VWS V14.00,2013-06-11 09:13:00,
2013-06-11 05:18:00,59.3,58.2,29.67,WNW,288,0.0,0.0,96,0.07,,-RA,0.13,VWS V14.00,2013-06-11 09:18:00,
2013-06-11 05:23:00,59.3,58.2,29.67,WNW,288,0.0,0.0,96,0.07,,-RA,0.13,VWS V14.00,2013-06-11 09:23:00,
2013-06-11 05:28:00,59.3,58.2,29.67,WNW,288,0.0,0.0,96,0.07,,-RA,0.13,VWS V14.00,2013-06-11 09:28:00,
2013-06-11 05:33:00,59.3,58.2,29.67,WNW,288,0.0,2.0,96,0.05,,-RA,0.13,VWS V14.00,2013-06-11 09:33:00,
2013-06-11 05:38:00,59.3,58.2,29.67,WNW,288,0.0,1.0,96,0.05,,-RA,0.13,VWS V14.00,2013-06-11 09:38:00,
2013-06-11 05:43:00,59.3,58.2,29.67,NW,306,0.0,0.0,96,0.05,,-RA,0.13,VWS V14.00,2013-06-11 09:43:00,
2013-06-11 05:48:00,59.2,58.1,29.66,NW,306,0.0,1.0,96,0.04,,OVC004,0.13,VWS V14.00,2013-06-11 09:48:00,
2013-06-11 05:53:00,59.3,58.2,29.66,NW,306,0.0,0.0,96,0.04,,OVC004,0.13,VWS V14.00,2013-06-11 09:53:00,
2013-06-11 05:58:00,59.3,58.2,29.66,NW,306,0.0,0.0,96,0.04,,OVC004,0.13,VWS V14.00,2013-06-11 09:58:00,
2013-06-11 06:03:00,59.3,58.2,29.66,NW,306,0.0,0.0,96,0.02,,OVC004,0.13,VWS V14.00,2013-06-11 10:03:00,
2013-06-11 06:09:00,59.3,58.2,29.66,NW,306,0.0,0.0,96,0.02,,OVC004,0.13,VWS V14.00,2013-06-11 10:09:00,
2013-06-11 06:14:00,59.3,58.2,29.66,NW,306,0.0,0.0,96,0.02,,OVC004,0.13,VWS V14.00,2013-06-11 10:14:00,
2013-06-11 06:18:00,59.3,58.2,29.67,NW,306,0.0,0.0,96,0.00,,OVC004,0.13,VWS V14.00,2013-06-11 10:18:00,
2013-06-11 06:24:00,59.3,58.2,29.67,NW,306,0.0,0.0,96,0.00,,OVC004,0.13,VWS V14.00,2013-06-11 10:24:00,
2013-06-11 06:29:00,59.3,58.2,29.67,NW,306,0.0,0.0,96,0.00,,OVC004,0.13,VWS V14.00,2013-06-11 10:29:00,
2013-06-11 06:34:00,59.3,58.2,29.67,NW,306,0.0,1.0,96,0.00,,OVC004,0.13,VWS V14.00,2013-06-11 10:34:00,
2013-06-11 06:39:00,59.5,58.4,29.67,NW,323,0.0,0.0,96,0.01,,OVC004,0.14,VWS V14.00,2013-06-11 10:39:00,
2013-06-11 06:44:00,59.5,58.4,29.67,NW,323,0.0,0.0,96,0.01,,OVC004,0.14,VWS V14.00,2013-06-11 10:44:00,
2013-06-11 06:49:00,59.3,58.2,29.67,NW,323,0.0,0.0,96,0.01,,,0.14,VWS V14.00,2013-06-11 10:49:00,
2013-06-11 06:54:00,59.5,58.4,29.67,NW,314,0.0,1.0,96,0.01,,,0.14,VWS V14.00,2013-06-11 10:54:00,
2013-06-11 06:59:00,59.5,58.4,29.67,North,11,1.0,1.0,96,0.01,,,0.14,VWS V14.00,2013-06-11 10:59:00,
2013-06-11 07:04:00,59.5,58.4,29.66,North,5,0.0,3.0,96,0.01,,,0.14,VWS V14.00,2013-06-11 11:04:00,
2013-06-11 07:09:00,59.6,58.5,29.66,North,5,0.0,0.0,96,0.01,,,0.14,VWS V14.00,2013-06-11 11:09:00,
2013-06-11 07:14:00,59.8,58.7,29.66,North,5,0.0,0.0,96,0.01,,,0.14,VWS V14.00,2013-06-11 11:14:00,
2013-06-11 07:19:00,59.6,58.5,29.66,North,5,0.0,0.0,96,0.01,,,0.14,VWS V14.00,2013-06-11 11:19:00,
2013-06-11 07:24:00,59.6,58.5,29.66,North,5,0.0,0.0,96,0.01,,,0.14,VWS V14.00,2013-06-11 11:24:00,
2013-06-11 07:29:00,59.6,58.5,29.66,North,5,0.0,0.0,96,0.01,,,0.14,VWS V14.00,2013-06-11 11:29:00,
2013-06-11 07:34:00,59.8,58.7,29.66,North,5,0.0,1.0,96,0.01,,,0.14,VWS V14.00,2013-06-11 11:34:00,
2013-06-11 07:39:00,59.8,58.7,29.66,North,5,0.0,0.0,96,0.01,,,0.14,VWS V14.00,2013-06-11 11:39:00,
2013-06-11 07:44:00,59.6,58.5,29.66,North,5,0.0,1.0,96,0.01,,,0.14,VWS V14.00,2013-06-11 11:44:00,
2013-06-11 07:49:00,59.6,58.5,29.66,North,5,0.0,0.0,96,0.00,,,0.14,VWS V14.00,2013-06-11 11:49:00,
2013-06-11 07:54:00,59.8,58.7,29.66,North,5,0.0,0.0,96,0.00,,,0.14,VWS V14.00,2013-06-11 11:54:00,
2013-06-11 07:59:00,59.8,58.7,29.66,North,5,0.0,0.0,96,0.00,,,0.14,VWS V14.00,2013-06-11 11:59:00,
2013-06-11 08:04:00,59.9,58.8,29.66,North,5,0.0,0.0,96,0.00,,,0.14,VWS V14.00,2013-06-11 12:04:00,
2013-06-11 08:09:00,60.2,59.1,29.66,North,5,0.0,0.0,96,0.00,,,0.14,VWS V14.00,2013-06-11 12:09:00,
2013-06-11 08:14:00,60.1,59.0,29.66,North,5,0.0,0.0,96,0.00,,,0.14,VWS V14.00,2013-06-11 12:14:00,
2013-06-11 08:19:00,60.1,59.0,29.66,North,5,0.0,0.0,96,0.00,,,0.14,VWS V14.00,2013-06-11 12:19:00,
2013-06-11 08:24:00,60.1,59.0,29.66,North,5,0.0,0.0,96,0.00,,,0.14,VWS V14.00,2013-06-11 12:24:00,
2013-06-11 08:29:00,60.1,59.0,29.66,North,5,0.0,0.0,96,0.00,,,0.14,VWS V14.00,2013-06-11 12:29:00,
2013-06-11 08:34:00,60.2,59.3,29.67,North,5,0.0,0.0,97,0.00,,,0.14,VWS V14.00,2013-06-11 12:34:00,
2013-06-11 08:39:00,60.1,59.2,29.67,North,5,1.0,1.0,97,0.00,,,0.14,VWS V14.00,2013-06-11 12:39:00,
2013-06-11 08:44:00,60.1,59.2,29.67,North,5,0.0,0.0,97,0.00,,,0.14,VWS V14.00,2013-06-11 12:44:00,
2013-06-11 08:49:00,60.2,59.3,29.67,North,5,0.0,0.0,97,0.00,,,0.14,VWS V14.00,2013-06-11 12:49:00,
2013-06-11 08:54:00,60.2,59.3,29.67,North,5,0.0,0.0,97,0.00,,,0.14,VWS V14.00,2013-06-11 12:54:00,
2013-06-11 08:59:00,60.2,59.3,29.67,North,5,0.0,0.0,97,0.00,,,0.14,VWS V14.00,2013-06-11 12:59:00,
2013-06-11 09:04:00,60.4,59.5,29.66,North,5,0.0,0.0,97,0.00,,,0.14,VWS V14.00,2013-06-11 13:04:00,
2013-06-11 09:09:00,60.4,59.5,29.66,North,5,0.0,0.0,97,0.00,,,0.14,VWS V14.00,2013-06-11 13:09:00,
2013-06-11 09:14:00,60.4,59.5,29.66,North,5,0.0,0.0,97,0.00,,,0.14,VWS V14.00,2013-06-11 13:14:00,
2013-06-11 09:19:00,60.5,59.7,29.65,North,5,0.0,0.0,97,0.00,,,0.14,VWS V14.00,2013-06-11 13:19:00,
2013-06-11 09:24:00,60.7,59.8,29.65,North,5,0.0,0.0,97,0.00,,,0.14,VWS V14.00,2013-06-11 13:24:00,
2013-06-11 09:29:00,60.9,60.0,29.65,North,5,0.0,0.0,97,0.00,,,0.14,VWS V14.00,2013-06-11 13:29:00,
2013-06-11 09:34:00,61.0,60.2,29.64,North,5,0.0,1.0,97,0.00,,,0.14,VWS V14.00,2013-06-11 13:34:00,
2013-06-11 09:39:00,62.0,61.1,29.64,North,5,0.0,0.0,97,0.00,,,0.14,VWS V14.00,2013-06-11 13:39:00,
2013-06-11 09:44:00,61.6,60.7,29.64,North,10,1.0,1.0,97,0.00,,,0.14,VWS V14.00,2013-06-11 13:44:00,
2013-06-11 09:49:00,61.6,60.7,29.64,North,10,0.0,0.0,97,0.00,,,0.14,VWS V14.00,2013-06-11 13:49:00,
2013-06-11 09:54:00,62.1,61.2,29.64,North,10,0.0,0.0,97,0.00,,,0.14,VWS V14.00,2013-06-11 13:54:00,
2013-06-11 09:59:00,62.3,61.4,29.64,North,10,0.0,0.0,97,0.00,,,0.14,VWS V14.00,2013-06-11 13:59:00,
2013-06-11 10:04:00,62.4,61.5,29.64,SE,126,0.0,1.0,97,0.00,,,0.14,VWS V14.00,2013-06-11 14:04:00,
2013-06-11 10:09:00,62.7,61.8,29.64,SE,126,0.0,0.0,97,0.00,,,0.14,VWS V14.00,2013-06-11 14:09:00,
2013-06-11 10:14:00,62.9,62.0,29.64,SE,126,0.0,1.0,97,0.00,,,0.14,VWS V14.00,2013-06-11 14:14:00,
2013-06-11 10:19:00,62.9,62.0,29.64,SE,126,0.0,2.0,97,0.00,,,0.14,VWS V14.00,2013-06-11 14:19:00,
2013-06-11 10:24:00,63.1,62.2,29.64,SE,126,0.0,0.0,97,0.00,,,0.14,VWS V14.00,2013-06-11 14:24:00,
2013-06-11 10:29:00,63.4,62.5,29.64,SE,126,0.0,1.0,97,0.00,,,0.14,VWS V14.00,2013-06-11 14:29:00,
2013-06-11 10:34:00,64.2,63.6,29.64,SE,126,0.0,1.0,98,0.00,,,0.14,VWS V14.00,2013-06-11 14:34:00,
2013-06-11 10:39:00,64.3,63.4,29.64,SE,126,0.0,0.0,97,0.00,,,0.14,VWS V14.00,2013-06-11 14:39:00,
2013-06-11 10:44:00,64.2,63.3,29.64,SE,126,0.0,0.0,97,0.00,,,0.14,VWS V14.00,2013-06-11 14:44:00,
2013-06-11 10:49:00,64.2,63.3,29.64,SE,126,0.0,0.0,97,0.00,,BKN015,0.14,VWS V14.00,2013-06-11 14:49:00,
2013-06-11 10:54:00,64.5,63.6,29.64,SE,126,0.0,1.0,97,0.00,,BKN015,0.14,VWS V14.00,2013-06-11 14:54:00,
2013-06-11 10:59:00,64.7,63.8,29.64,SE,126,0.0,0.0,97,0.00,,BKN015,0.14,VWS V14.00,2013-06-11 14:59:00,
2013-06-11 11:04:00,64.3,63.4,29.64,SE,126,0.0,0.0,97,0.00,,BKN015,0.14,VWS V14.00,2013-06-11 15:04:00,
2013-06-11 11:09:00,64.7,63.8,29.64,SE,126,1.0,1.0,97,0.00,,BKN015,0.14,VWS V14.00,2013-06-11 15:09:00,
2013-06-11 11:14:00,65.3,64.4,29.64,SE,126,0.0,0.0,97,0.00,,BKN015,0.14,VWS V14.00,2013-06-11 15:14:00,
2013-06-11 11:19:00,66.0,65.1,29.63,East,88,0.0,0.0,97,0.00,,BKN015,0.14,VWS V14.00,2013-06-11 15:19:00,
2013-06-11 11:24:00,66.8,65.9,29.63,East,88,0.0,1.0,97,0.00,,BKN015,0.14,VWS V14.00,2013-06-11 15:24:00,
2013-06-11 11:29:00,67.6,66.7,29.63,NW,308,2.0,3.0,97,0.00,,BKN015,0.14,VWS V14.00,2013-06-11 15:29:00,
2013-06-11 11:34:00,67.4,66.2,29.62,WNW,286,0.0,1.0,96,0.00,,BKN015,0.14,VWS V14.00,2013-06-11 15:34:00,
2013-06-11 11:39:00,68.3,67.1,29.62,WNW,286,0.0,1.0,96,0.00,,BKN015,0.14,VWS V14.00,2013-06-11 15:39:00,
2013-06-11 11:44:00,68.9,67.4,29.62,WNW,296,3.0,5.0,95,0.00,,BKN015,0.14,VWS V14.00,2013-06-11 15:44:00,
2013-06-11 11:49:00,68.9,67.1,29.61,WNW,296,1.0,4.0,94,0.00,,BKN026,0.14,VWS V14.00,2013-06-11 15:49:00,
2013-06-11 11:54:00,69.1,66.4,29.61,SW,227,0.0,4.0,91,0.00,,BKN026,0.14,VWS V14.00,2013-06-11 15:54:00,
2013-06-11 11:59:00,70.6,67.8,29.61,South,170,0.0,0.0,91,0.00,,BKN026,0.14,VWS V14.00,2013-06-11 15:59:00,
2013-06-11 12:04:00,70.9,66.8,29.60,South,174,0.0,0.0,87,0.00,,BKN026,0.14,VWS V14.00,2013-06-11 16:04:00,
2013-06-11 12:10:00,71.3,66.6,29.60,WSW,257,1.0,1.0,85,0.00,,BKN026,0.14,VWS V14.00,2013-06-11 16:10:00,
2013-06-11 12:15:00,71.1,66.7,29.60,WNW,302,0.0,0.0,86,0.00,,BKN026,0.14,VWS V14.00,2013-06-11 16:15:00,
2013-06-11 12:20:00,71.3,65.9,29.60,WNW,302,0.0,1.0,83,0.00,,BKN026,0.14,VWS V14.00,2013-06-11 16:20:00,
2013-06-11 12:25:00,71.6,66.9,29.60,WNW,302,0.0,0.0,85,0.00,,BKN026,0.14,VWS V14.00,2013-06-11 16:25:00,
2013-06-11 12:30:00,71.8,66.0,29.60,WNW,302,2.0,2.0,82,0.00,,BKN026,0.14,VWS V14.00,2013-06-11 16:30:00,
2013-06-11 12:35:00,72.7,65.8,29.59,ESE,109,0.0,0.0,79,0.00,,BKN026,0.14,VWS V14.00,2013-06-11 16:35:00,
2013-06-11 12:40:00,72.7,65.8,29.59,SE,127,0.0,3.0,79,0.00,,BKN026,0.14,VWS V14.00,2013-06-11 16:40:00,
2013-06-11 12:45:00,72.3,65.1,29.59,SE,127,0.0,1.0,78,0.00,,BKN026,0.14,VWS V14.00,2013-06-11 16:45:00,
2013-06-11 12:50:00,72.8,66.3,29.59,SE,127,0.0,0.0,80,0.00,,BKN018,0.14,VWS V14.00,2013-06-11 16:50:00,
2013-06-11 12:55:00,72.8,65.6,29.59,WSW,239,1.0,2.0,78,0.00,,BKN018,0.14,VWS V14.00,2013-06-11 16:55:00,
2013-06-11 13:00:00,73.5,66.6,29.59,SW,224,1.0,1.0,79,0.00,,BKN018,0.14,VWS V14.00,2013-06-11 17:00:00,
2013-06-11 13:05:00,74.4,67.1,29.58,WNW,290,1.0,5.0,78,0.00,,BKN018,0.14,VWS V14.00,2013-06-11 17:05:00,
2013-06-11 13:10:00,75.1,66.2,29.58,SE,137,1.0,5.0,74,0.00,,BKN018,0.14,VWS V14.00,2013-06-11 17:10:00,
2013-06-11 13:15:00,74.7,65.1,29.58,SSE,148,1.0,3.0,72,0.00,,BKN018,0.14,VWS V14.00,2013-06-11 17:15:00,
2013-06-11 13:20:00,74.2,65.0,29.56,SE,133,0.0,2.0,73,0.00,,BKN018,0.14,VWS V14.00,2013-06-11 17:20:00,
2013-06-11 13:25:00,74.0,65.2,29.56,SE,131,0.0,2.0,74,0.00,,BKN018,0.14,VWS V14.00,2013-06-11 17:25:00,
2013-06-11 13:30:00,74.6,65.8,29.56,WNW,291,1.0,3.0,74,0.00,,BKN018,0.14,VWS V14.00,2013-06-11 17:30:00,
2013-06-11 13:35:00,74.2,65.8,29.55,ENE,58,0.0,3.0,75,0.00,,BKN018,0.14,VWS V14.00,2013-06-11 17:35:00,
2013-06-11 13:40:00,73.7,65.3,29.55,SSE,149,2.0,2.0,75,0.00,,BKN018,0.14,VWS V14.00,2013-06-11 17:40:00,
2013-06-11 13:45:00,73.7,64.9,29.55,SW,219,1.0,1.0,74,0.00,,BKN018,0.14,VWS V14.00,2013-06-11 17:45:00,
2013-06-11 13:50:00,73.5,63.9,29.54,SW,220,1.0,2.0,72,0.00,,SCT065,0.14,VWS V14.00,2013-06-11 17:50:00,
2013-06-11 13:55:00,73.7,64.5,29.54,NW,304,1.0,1.0,73,0.00,,SCT065,0.14,VWS V14.00,2013-06-11 17:55:00,
2013-06-11 14:00:00,73.5,64.3,29.54,SSW,209,4.0,13.0,73,0.00,,SCT065,0.14,VWS V14.00,2013-06-11 18:00:00,
2013-06-11 14:05:00,72.7,63.5,29.55,West,273,2.0,3.0,73,0.00,,SCT065,0.14,VWS V14.00,2013-06-11 18:05:00,
2013-06-11 14:10:00,73.7,64.5,29.55,WSW,238,3.0,4.0,73,0.00,,SCT065,0.14,VWS V14.00,2013-06-11 18:10:00,
2013-06-11 14:15:00,73.5,63.9,29.54,South,175,1.0,2.0,72,0.00,,SCT065,0.14,VWS V14.00,2013-06-11 18:15:00,
2013-06-11 14:20:00,73.2,64.4,29.54,WNW,302,1.0,1.0,74,0.00,,SCT065,0.14,VWS V14.00,2013-06-11 18:20:00,
2013-06-11 14:25:00,72.8,64.4,29.54,WNW,302,0.0,1.0,75,0.00,,SCT065,0.14,VWS V14.00,2013-06-11 18:25:00,
2013-06-11 14:30:00,72.3,64.7,29.54,WNW,300,0.0,0.0,77,0.00,,SCT065,0.14,VWS V14.00,2013-06-11 18:30:00,
2013-06-11 14:35:00,72.3,65.4,29.54,WNW,300,1.0,3.0,79,0.00,,SCT065,0.14,VWS V14.00,2013-06-11 18:35:00,
2013-06-11 14:40:00,72.3,66.2,29.54,WNW,300,0.0,0.0,81,0.00,,SCT065,0.14,VWS V14.00,2013-06-11 18:40:00,
2013-06-11 14:45:00,71.8,65.3,29.53,WNW,300,0.0,0.0,80,0.00,,SCT065,0.14,VWS V14.00,2013-06-11 18:45:00,
2013-06-11 14:50:00,72.1,65.6,29.53,NNW,330,0.0,2.0,80,0.00,,BKN048,0.14,VWS V14.00,2013-06-11 18:50:00,
2013-06-11 14:55:00,72.1,65.6,29.53,WNW,288,3.0,4.0,80,0.00,,BKN048,0.14,VWS V14.00,2013-06-11 18:55:00,
2013-06-11 15:00:00,72.3,64.3,29.53,West,265,1.0,6.0,76,0.00,,BKN048,0.14,VWS V14.00,2013-06-11 19:00:00,
2013-06-11 15:05:00,72.7,64.7,29.53,WNW,296,0.0,3.0,76,0.00,,BKN048,0.14,VWS V14.00,2013-06-11 19:05:00,
2013-06-11 15:10:00,72.8,64.0,29.53,WNW,296,2.0,2.0,74,0.00,,BKN048,0.14,VWS V14.00,2013-06-11 19:10:00,
2013-06-11 15:15:00,72.8,64.4,29.53,West,263,4.0,4.0,75,0.00,,BKN048,0.14,VWS V14.00,2013-06-11 19:15:00,
2013-06-11 15:20:00,72.3,63.6,29.53,SW,224,3.0,5.0,74,0.01,,BKN048,0.15,VWS V14.00,2013-06-11 19:20:00,
2013-06-11 15:25:00,71.6,64.0,29.53,WSW,240,0.0,5.0,77,0.06,,BKN048,0.20,VWS V14.00,2013-06-11 19:25:00,
2013-06-11 15:30:00,70.8,64.3,29.54,ENE,62,1.0,3.0,80,0.08,,BKN048,0.22,VWS V14.00,2013-06-11 19:30:00,
2013-06-11 15:35:00,70.1,64.0,29.54,WSW,244,0.0,3.0,81,0.12,,BKN048,0.26,VWS V14.00,2013-06-11 19:35:00,
2013-06-11 15:40:00,69.3,63.9,29.54,West,279,0.0,2.0,83,0.21,,BKN048,0.35,VWS V14.00,2013-06-11 19:40:00,
2013-06-11 15:45:00,68.8,64.1,29.54,SW,221,1.0,1.0,85,0.24,,BKN048,0.38,VWS V14.00,2013-06-11 19:45:00,
2013-06-11 15:50:00,68.1,64.1,29.54,SW,221,0.0,1.0,87,0.25,,OVC075,0.39,VWS V14.00,2013-06-11 19:50:00,
2013-06-11 15:55:00,67.8,64.8,29.54,South,180,0.0,1.0,90,0.25,,OVC075,0.39,VWS V14.00,2013-06-11 19:55:00,
2013-06-11 16:00:00,68.1,65.4,29.53,SW,232,0.0,3.0,91,0.25,,OVC075,0.39,VWS V14.00,2013-06-11 20:00:00,
2013-06-11 16:05:00,68.3,65.9,29.53,SW,223,0.0,1.0,92,0.25,,OVC075,0.39,VWS V14.00,2013-06-11 20:05:00,
2013-06-11 16:10:00,68.3,65.9,29.53,SW,216,1.0,3.0,92,0.25,,OVC075,0.39,VWS V14.00,2013-06-11 20:10:00,
2013-06-11 16:15:00,68.9,66.8,29.52,SW,227,0.0,1.0,93,0.25,,OVC075,0.39,VWS V14.00,2013-06-11 20:15:00,
2013-06-11 16:20:00,69.4,67.6,29.52,WNW,300,1.0,3.0,94,0.25,,OVC075,0.39,VWS V14.00,2013-06-11 20:20:00,
2013-06-11 16:25:00,68.9,66.8,29.52,WSW,243,1.0,2.0,93,0.25,,OVC075,0.39,VWS V14.00,2013-06-11 20:25:00,
2013-06-11 16:31:00,68.9,66.8,29.52,West,271,1.0,4.0,93,0.25,,OVC075,0.39,VWS V14.00,2013-06-11 20:31:00,
2013-06-11 16:36:00,69.1,67.0,29.52,West,271,3.0,3.0,93,0.17,,OVC075,0.39,VWS V14.00,2013-06-11 20:36:00,
2013-06-11 16:41:00,70.3,68.5,29.52,West,259,0.0,2.0,94,0.17,,OVC075,0.39,VWS V14.00,2013-06-11 20:41:00,
2013-06-11 16:46:00,70.3,67.9,29.51,West,269,1.0,4.0,92,0.17,,OVC075,0.39,VWS V14.00,2013-06-11 20:46:00,
2013-06-11 16:51:00,70.8,68.4,29.51,West,275,4.0,4.0,92,0.01,,OVC055,0.39,VWS V14.00,2013-06-11 20:51:00,
2013-06-11 16:56:00,70.3,67.9,29.51,WNW,284,2.0,2.0,92,0.01,,OVC055,0.39,VWS V14.00,2013-06-11 20:56:00,
2013-06-11 17:01:00,70.3,67.6,29.50,WNW,294,1.0,2.0,91,0.01,,OVC055,0.39,VWS V14.00,2013-06-11 21:01:00,
2013-06-11 17:06:00,70.1,67.4,29.50,West,281,3.0,4.0,91,0.02,,OVC055,0.41,VWS V14.00,2013-06-11 21:06:00,
2013-06-11 17:11:00,69.6,66.9,29.50,SW,230,2.0,5.0,91,0.03,,OVC055,0.42,VWS V14.00,2013-06-11 21:11:00,
2013-06-11 17:16:00,69.3,66.6,29.51,West,264,2.0,10.0,91,0.03,,OVC055,0.42,VWS V14.00,2013-06-11 21:16:00,
2013-06-11 17:21:00,68.9,66.2,29.51,WNW,290,10.0,17.0,91,0.03,,OVC055,0.42,VWS V14.00,2013-06-11 21:21:00,
2013-06-11 17:26:00,68.8,66.1,29.51,WNW,290,3.0,15.0,91,0.06,,OVC055,0.45,VWS V14.00,2013-06-11 21:26:00,
2013-06-11 17:31:00,68.3,65.6,29.51,WNW,282,7.0,7.0,91,0.07,,OVC055,0.46,VWS V14.00,2013-06-11 21:31:00,
2013-06-11 17:36:00,68.1,65.4,29.51,West,275,5.0,6.0,91,0.07,,OVC055,0.46,VWS V14.00,2013-06-11 21:36:00,
2013-06-11 17:41:00,68.4,65.7,29.51,SW,219,2.0,5.0,91,0.07,,OVC055,0.46,VWS V14.00,2013-06-11 21:41:00,
2013-06-11 17:47:00,68.6,65.9,29.51,WSW,246,10.0,10.0,91,0.07,,OVC055,0.46,VWS V14.00,2013-06-11 21:47:00,
2013-06-11 17:52:00,68.4,65.4,29.51,South,174,2.0,7.0,90,0.07,,-RA,0.46,VWS V14.00,2013-06-11 21:52:00,
2013-06-11 17:57:00,68.4,65.4,29.51,WNW,284,5.0,7.0,90,0.07,,-RA,0.46,VWS V14.00,2013-06-11 21:57:00,
2013-06-11 18:02:00,68.3,64.9,29.52,West,281,2.0,5.0,89,0.07,,-RA,0.46,VWS V14.00,2013-06-11 22:02:00,
2013-06-11 18:07:00,68.4,65.0,29.52,West,275,7.0,7.0,89,0.07,,-RA,0.46,VWS V14.00,2013-06-11 22:07:00,
2013-06-11 18:12:00,68.4,64.7,29.52,WNW,300,1.0,2.0,88,0.07,,-RA,0.46,VWS V14.00,2013-06-11 22:12:00,
2013-06-11 18:17:00,68.6,64.9,29.51,WNW,293,4.0,5.0,88,0.04,,-RA,0.46,VWS V14.00,2013-06-11 22:17:00,
2013-06-11 18:22:00,68.6,64.6,29.51,WNW,302,9.0,9.0,87,0.04,,-RA,0.46,VWS V14.00,2013-06-11 22:22:00,
2013-06-11 18:27:00,69.1,64.7,29.51,WNW,289,2.0,5.0,86,0.04,,-RA,0.46,VWS V14.00,2013-06-11 22:27:00,
2013-06-11 18:32:00,69.3,64.3,29.52,West,272,3.0,3.0,84,0.00,,-RA,0.46,VWS V14.00,2013-06-11 22:32:00,
2013-06-11 18:37:00,69.4,63.7,29.52,West,275,4.0,7.0,82,0.00,,-RA,0.46,VWS V14.00,2013-06-11 22:37:00,
2013-06-11 18:42:00,69.6,64.2,29.52,WNW,294,2.0,5.0,83,0.00,,-RA,0.46,VWS V14.00,2013-06-11 22:42:00,
2013-06-11 18:47:00,69.4,63.7,29.52,West,277,4.0,11.0,82,0.00,,BKN070,0.46,VWS V14.00,2013-06-11 22:47:00,
2013-06-11 18:52:00,69.3,63.2,29.52,WSW,238,2.0,9.0,81,0.00,,BKN070,0.46,VWS V14.00,2013-06-11 22:52:00,
2013-06-11 18:57:00,69.3,62.5,29.52,West,279,2.0,11.0,79,0.00,,BKN070,0.46,VWS V14.00,2013-06-11 22:57:00,
2013-06-11 19:02:00,69.1,62.0,29.52,WNW,294,1.0,13.0,78,0.00,,BKN070,0.46,VWS V14.00,2013-06-11 23:02:00,
2013-06-11 19:07:00,69.1,61.6,29.52,West,274,5.0,11.0,77,0.00,,BKN070,0.46,VWS V14.00,2013-06-11 23:07:00,
2013-06-11 19:12:00,69.1,60.8,29.52,WNW,295,2.0,11.0,75,0.00,,BKN070,0.46,VWS V14.00,2013-06-11 23:12:00,
2013-06-11 19:17:00,69.1,60.8,29.53,West,278,7.0,9.0,75,0.00,,BKN070,0.46,VWS V14.00,2013-06-11 23:17:00,
2013-06-11 19:22:00,69.1,60.5,29.53,West,281,3.0,3.0,74,0.00,,BKN070,0.46,VWS V14.00,2013-06-11 23:22:00,
2013-06-11 19:27:00,69.1,60.5,29.53,SW,230,3.0,9.0,74,0.00,,BKN070,0.46,VWS V14.00,2013-06-11 23:27:00,
2013-06-11 19:32:00,68.9,59.9,29.53,West,279,10.0,11.0,73,0.00,,BKN070,0.46,VWS V14.00,2013-06-11 23:32:00,
2013-06-11 19:37:00,68.9,59.9,29.53,WNW,284,5.0,9.0,73,0.00,,BKN070,0.46,VWS V14.00,2013-06-11 23:37:00,
2013-06-11 19:42:00,68.9,59.9,29.53,NW,310,3.0,6.0,73,0.00,,BKN070,0.46,VWS V14.00,2013-06-11 23:42:00,
2013-06-11 19:47:00,68.8,59.4,29.54,WNW,285,2.0,9.0,72,0.00,,FEW036,0.46,VWS V14.00,2013-06-11 23:47:00,
2013-06-11 19:52:00,68.6,58.8,29.54,NW,320,4.0,5.0,71,0.00,,FEW036,0.46,VWS V14.00,2013-06-11 23:52:00,
2013-06-11 19:57:00,68.6,59.2,29.54,NW,307,14.0,14.0,72,0.00,,FEW036,0.46,VWS V14.00,2013-06-11 23:57:00,
2013-06-11 20:02:00,68.4,59.0,29.54,West,263,5.0,13.0,72,0.00,,FEW036,0.46,VWS V14.00,2013-06-12 00:02:00,
2013-06-11 20:07:00,68.3,58.5,29.54,WNW,283,7.0,7.0,71,0.00,,FEW036,0.46,VWS V14.00,2013-06-12 00:07:00,
2013-06-11 20:12:00,68.3,58.5,29.54,WNW,288,2.0,5.0,71,0.00,,FEW036,0.46,VWS V14.00,2013-06-12 00:12:00,
2013-06-11 20:17:00,68.1,58.7,29.54,WNW,286,3.0,5.0,72,0.00,,FEW036,0.46,VWS V14.00,2013-06-12 00:17:00,
2013-06-11 20:22:00,67.9,58.5,29.54,SW,236,2.0,6.0,72,0.00,,FEW036,0.46,VWS V14.00,2013-06-12 00:22:00,
2013-06-11 20:27:00,67.8,58.5,29.54,West,271,1.0,5.0,72,0.00,,FEW036,0.46,VWS V14.00,2013-06-12 00:27:00,
2013-06-11 20:32:00,67.8,58.8,29.54,WNW,291,1.0,8.0,73,0.00,,CLR,0.46,VWS V14.00,2013-06-12 00:32:00,
2013-06-11 20:37:00,67.6,58.7,29.54,West,279,1.0,4.0,73,0.00,,CLR,0.46,VWS V14.00,2013-06-12 00:37:00,
2013-06-11 20:42:00,67.6,59.0,29.54,WNW,284,7.0,7.0,74,0.00,,CLR,0.46,VWS V14.00,2013-06-12 00:42:00,
2013-06-11 20:47:00,67.4,58.8,29.55,WNW,295,5.0,6.0,74,0.00,,CLR,0.46,VWS V14.00,2013-06-12 00:47:00,
2013-06-11 20:52:00,67.4,58.8,29.55,WNW,290,1.0,2.0,74,0.00,,CLR,0.46,VWS V14.00,2013-06-12 00:52:00,
2013-06-11 20:57:00,67.3,58.7,29.55,WNW,285,2.0,3.0,74,0.00,,CLR,0.46,VWS V14.00,2013-06-12 00:57:00,
2013-06-11 21:02:00,67.3,58.7,29.56,WNW,298,1.0,5.0,74,0.00,,CLR,0.46,VWS V14.00,2013-06-12 01:02:00,
2013-06-11 21:07:00,67.1,58.9,29.56,West,261,2.0,5.0,75,0.00,,CLR,0.46,VWS V14.00,2013-06-12 01:07:00,
2013-06-11 21:12:00,67.1,58.9,29.56,WNW,294,2.0,5.0,75,0.00,,CLR,0.46,VWS V14.00,2013-06-12 01:12:00,
2013-06-11 21:18:00,66.9,58.7,29.56,WNW,294,1.0,2.0,75,0.00,,CLR,0.46,VWS V14.00,2013-06-12 01:18:00,
2013-06-11 21:23:00,66.8,58.6,29.56,West,262,1.0,2.0,75,0.00,,CLR,0.46,VWS V14.00,2013-06-12 01:23:00,
2013-06-11 21:28:00,66.6,58.4,29.56,West,280,3.0,7.0,75,0.00,,CLR,0.46,VWS V14.00,2013-06-12 01:28:00,
2013-06-11 21:33:00,66.4,58.2,29.56,WNW,288,2.0,4.0,75,0.00,,CLR,0.46,VWS V14.00,2013-06-12 01:33:00,
2013-06-11 21:38:00,66.4,58.2,29.56,West,265,3.0,5.0,75,0.00,,CLR,0.46,VWS V14.00,2013-06-12 01:38:00,
2013-06-11 21:43:00,66.4,58.2,29.56,WNW,292,2.0,3.0,75,0.00,,CLR,0.46,VWS V14.00,2013-06-12 01:43:00,
2013-06-11 21:48:00,66.3,58.2,29.56,NW,305,4.0,7.0,75,0.00,,BKN060,0.46,VWS V14.00,2013-06-12 01:48:00,
2013-06-11 21:53:00,66.3,58.2,29.56,West,273,7.0,7.0,75,0.00,,BKN060,0.46,VWS V14.00,2013-06-12 01:53:00,
2013-06-11 21:58:00,66.3,57.8,29.56,West,265,3.0,9.0,74,0.00,,BKN060,0.46,VWS V14.00,2013-06-12 01:58:00,
2013-06-11 22:03:00,66.3,57.8,29.57,NW,318,10.0,10.0,74,0.00,,BKN060,0.46,VWS V14.00,2013-06-12 02:03:00,
2013-06-11 22:08:00,66.3,57.8,29.57,West,260,7.0,7.0,74,0.00,,BKN060,0.46,VWS V14.00,2013-06-12 02:08:00,
2013-06-11 22:13:00,66.1,57.6,29.57,WNW,288,4.0,5.0,74,0.00,,BKN060,0.46,VWS V14.00,2013-06-12 02:13:00,
2013-06-11 22:18:00,66.0,56.3,29.57,West,270,3.0,7.0,71,0.00,,BKN060,0.46,VWS V14.00,2013-06-12 02:18:00,
2013-06-11 22:23:00,66.0,57.1,29.57,WNW,290,6.0,9.0,73,0.00,,BKN060,0.46,VWS V14.00,2013-06-12 02:23:00,
2013-06-11 22:28:00,66.0,57.1,29.57,WNW,285,6.0,6.0,73,0.00,,BKN060,0.46,VWS V14.00,2013-06-12 02:28:00,
2013-06-11 22:33:00,66.0,56.7,29.57,SSW,201,3.0,9.0,72,0.00,,BKN060,0.46,VWS V14.00,2013-06-12 02:33:00,
2013-06-11 22:38:00,65.8,56.5,29.57,WNW,294,3.0,10.0,72,0.00,,BKN060,0.46,VWS V14.00,2013-06-12 02:38:00,
2013-06-11 22:43:00,65.8,56.2,29.57,WNW,284,4.0,5.0,71,0.00,,BKN060,0.46,VWS V14.00,2013-06-12 02:43:00,
2013-06-11 22:48:00,65.8,56.2,29.57,NW,304,5.0,9.0,71,0.00,,CLR,0.46,VWS V14.00,2013-06-12 02:48:00,
2013-06-11 22:53:00,65.8,55.8,29.57,WNW,296,4.0,5.0,70,0.00,,CLR,0.46,VWS V14.00,2013-06-12 02:53:00,
2013-06-11 22:58:00,65.6,55.6,29.57,West,273,0.0,7.0,70,0.00,,CLR,0.46,VWS V14.00,2013-06-12 02:58:00,
2013-06-11 23:03:00,65.6,55.6,29.57,West,277,4.0,4.0,70,0.00,,CLR,0.46,VWS V14.00,2013-06-12 03:03:00,
2013-06-11 23:08:00,65.5,55.9,29.57,West,265,6.0,7.0,71,0.00,,CLR,0.46,VWS V14.00,2013-06-12 03:08:00,
2013-06-11 23:13:00,65.3,55.3,29.57,West,281,3.0,9.0,70,0.00,,CLR,0.46,VWS V14.00,2013-06-12 03:13:00,
2013-06-11 23:18:00,65.2,55.6,29.57,West,259,1.0,4.0,71,0.00,,CLR,0.46,VWS V14.00,2013-06-12 03:18:00,
2013-06-11 23:23:00,65.0,55.0,29.57,WSW,256,4.0,6.0,70,0.00,,CLR,0.46,VWS V14.00,2013-06-12 03:23:00,
2013-06-11 23:28:00,65.0,55.0,29.57,WNW,298,9.0,12.0,70,0.00,,CLR,0.46,VWS V14.00,2013-06-12 03:28:00,
2013-06-11 23:33:00,65.0,54.6,29.57,WNW,289,3.0,5.0,69,0.00,,CLR,0.46,VWS V14.00,2013-06-12 03:33:00,
2013-06-11 23:38:00,64.8,54.4,29.57,West,271,5.0,9.0,69,0.00,,CLR,0.46,VWS V14.00,2013-06-12 03:38:00,
2013-06-11 23:43:00,64.7,54.3,29.57,West,259,2.0,7.0,69,0.00,,CLR,0.46,VWS V14.00,2013-06-12 03:43:00,
2013-06-11 23:48:00,64.7,54.3,29.58,WNW,286,6.0,6.0,69,0.00,,CLR,0.46,VWS V14.00,2013-06-12 03:48:00,
2013-06-11 23:53:00,64.5,53.7,29.58,WNW,288,1.0,3.0,68,0.00,,CLR,0.46,VWS V14.00,2013-06-12 03:53:00,
2013-06-11 23:58:00,64.3,53.5,29.58,WNW,285,3.0,11.0,68,0.00,,CLR,0.46,VWS V14.00,2013-06-12 03:58:00,